Regional Weather Roundup
Issued by NWS

Home | Current Version | Previous Version | Graphics & Text | Print | Product List | Glossary On
Versions: 1 2 3 4 5 6 7 8 9 10 11 12 13 14 15 16 17 18 19 20 21 22 23 24 25 26 27 28 29 30 31 32 33 34 35 36 37 38 39 40 41 42 43 44 45 46 47 48 49 50
000
ASUS43 KFSD 241102
RWRSD

WEATHER ROUNDUP FOR SOUTH DAKOTA
NATIONAL WEATHER SERVICE SIOUX FALLS SD
600 AM CDT MON JUL 24 2017

NOTE: "FAIR" INDICATES FEW OR NO CLOUDS BELOW 12,000 FEET WITH NO
SIGNIFICANT WEATHER AND/OR OBSTRUCTIONS TO VISIBILITY.


SDZ001>005-009-010-012>017-241200-
NORTHWEST AND NORTH CENTRAL SOUTH DAKOTA

CITY           SKY/WX    TMP DP  RH WIND       PRES   REMARKS
BUFFALO          N/A     70  57  63 S20       29.78F
FAITH            N/A     67  56  67 E8        29.94F
MOBRIDGE       CLOUDY    68  61  78 S9        29.94R
$$

SDZ012>016-024>037-041>051-057-063-072>074-241200-
SOUTHWEST AND SOUTH CENTRAL SOUTH DAKOTA

CITY           SKY/WX    TMP DP  RH WIND       PRES   REMARKS
RAPID CTY ARPT LGT RAIN  69  53  56 CALM      29.92F
PIERRE         CLOUDY    67  58  72 SE13      29.92F
CUSTER         CLOUDY    64  48  56 E12       30.06F
ELLSWORTH AFB  TSTM      68  54  60 E5        29.90
PHILIP         CLOUDY    69  59  70 SE3       29.93R
PINE RIDGE     CLEAR     74  55  51 W10       29.93R
SPEARFISH      FAIR      61  57  88 NE7       29.94F
WINNER         FAIR      70  57  63 S15       29.98S
$$

SDZ004>011-016>023-039-040-241200-
NORTHEAST SOUTH DAKOTA

CITY           SKY/WX    TMP DP  RH WIND       PRES   REMARKS
ABERDEEN       CLOUDY    58  58 100 SE6       29.99F
WATERTOWN      CLEAR     58  56  93 S5        30.02F
BROOKINGS      CLEAR     57  56  96 CALM      30.04S
SISSETON         N/A     54  54 100 SE6       30.00F
$$

SDZ017-020-022-023-036>040-048>070-241200-
SOUTHEAST SOUTH DAKOTA

CITY           SKY/WX    TMP DP  RH WIND       PRES   REMARKS
SIOUX FALLS    PTCLDY    56  56 100 CALM      30.04R
HURON          CLOUDY    60  59  96 SE8       29.99F
CHAMBERLAIN    PTCLDY    63  62  96 E9        29.98S
MITCHELL       CLEAR     60  58  92 SE6       30.01F
YANKTON        CLEAR     59  59 100 CALM      30.03R FOG
$$

ABBREVIATIONS USED IN REMARKS
   TC - TEMPERATURE IN CELSIUS
  WCI - WIND CHILL INDEX
   HX - HEAT INDEX
  VSB - VISIBILITY





USA.gov is the U.S. government's official web portal to all federal, state and local government web resources and services.